{"data":{"norad_id":60513,"intl_designator":"2024-149AX","name":"FLOCK 4BE-27","alt_names":[],"object_type":"PAYLOAD","status":"ACTIVE","operator":null,"country":"US","launch_date":"2024-08-16","launch_site_code":"AFWTR","launch_vehicle":null,"mission":null,"orbit_class":"UNKNOWN","rcs_meters":null,"size_class":null,"mass_kg":null,"dimensions":null,"purposes":["earth_obs"],"wikipedia_slug":null,"has_3d_model":false,"image_url":null,"decayed_at":null,"tle_current":{"epoch":"2026-09-19T12:15:06.651360Z","epoch_age_seconds":100252,"freshness":"FRESH","line1":"1 60513U 24149AX  26262.51049365  .00007223  00000+0  20898-3 0  9999","line2":"2 60513  97.3768 344.4755 0003222 348.3549  11.7620 15.35909575116615","mean_motion":15.35909575,"eccentricity":0.0003222,"inclination_deg":97.3768,"raan_deg":344.4755,"arg_perigee_deg":348.3549,"mean_anomaly_deg":11.762,"bstar":0.00020898,"rev_number":11661,"period_min":93.755519428935,"perigee_km":456.01746618037,"apogee_km":460.42281472167,"semimajor_km":6836.357140451,"source":"CELESTRAK","updated_at":"2026-09-20T09:00:34.715109Z"}}}